Location: Limoges
(45.8500°N, 1.2500°E)
Time: 02:26:39
(UTC+02:00)

ISS - Pass Details

Date: 25 September 2021
Orbit: 417 x 423 km, 51.6° (Epoch: 21 October)

Event Time Altitude Azimuth Distance (km) Brightness Sun altitude
Rises 20:05:01 0° 268° (W) 2,359 3.0 -4.0°
Reaches altitude 10° 20:07:13 10° 277° (W) 1,497 1.0 -4.4°
Maximum altitude 20:10:21 36° 346° (NNW) 677 -2.5 -5.0°
Drops below altitude 10° 20:13:31 10° 56° (NE) 1,503 -1.4 -5.5°
Enters shadow 20:14:48 - 62° (ENE) 2,001 -0.8 -5.8°
